CAY200 MWCR-KTPA

Flight info

Callsign CAY200
Flight time N/A
Altitude 34000
Route XOPUT UL333 RAKAR UM219 MYDIA M219 CULLY DCT CHRGE RAYZZ3
Aircraft B738/M-SDE2E3FGHIRWXY/LB1

Departure

Time 2026-05-05 08:58
Airport Owen Roberts International Airport (MWCR)

Arrival

Time N/A
Airport Tampa International Airport (KTPA)
Time Latitude Longitude Altitude Speed Heading
2026-05-05 08:52 19.29451 -81.35726 15 ft 0 kts 257°
2026-05-05 08:53 19.29451 -81.35728 15 ft 2 kts 257°
2026-05-05 08:53 19.29436 -81.35784 15 ft 10 kts 244°
2026-05-05 08:53 19.29365 -81.35808 14 ft 7 kts 170°
2026-05-05 08:54 19.29357 -81.35805 14 ft 0 kts 166°
2026-05-05 08:54 19.29322 -81.35800 13 ft 12 kts 182°
2026-05-05 08:54 19.29253 -81.35893 16 ft 23 kts 254°
2026-05-05 08:54 19.29202 -81.36098 15 ft 34 kts 256°
2026-05-05 08:55 19.29138 -81.36374 17 ft 41 kts 256°
2026-05-05 08:55 19.29075 -81.36653 13 ft 35 kts 257°
2026-05-05 08:55 19.29020 -81.36889 15 ft 26 kts 268°
2026-05-05 08:55 19.29074 -81.36983 15 ft 13 kts 283°
2026-05-05 08:56 19.29049 -81.37006 15 ft 0 kts 169°
2026-05-05 08:57 19.29019 -81.36988 15 ft 11 kts 136°
2026-05-05 08:57 19.29020 -81.36873 15 ft 20 kts 76°
2026-05-05 08:57 19.29089 -81.36586 14 ft 77 kts 76°
2026-05-05 08:57 19.29284 -81.35755 14 ft 152 kts 77°
2026-05-05 08:58 19.29566 -81.34512 448 ft 181 kts 80°
2026-05-05 08:58 19.29708 -81.33251 1648 ft 164 kts 91°
2026-05-05 08:58 19.29698 -81.32146 2886 ft 141 kts 91°
2026-05-05 08:58 19.29938 -81.31060 3284 ft 166 kts 74°
2026-05-05 08:59 19.30546 -81.29902 3562 ft 199 kts 44°
2026-05-05 08:59 19.31868 -81.29207 3805 ft 228 kts 10°
2026-05-05 08:59 19.33509 -81.29400 4067 ft 249 kts 337°
2026-05-05 08:59 19.34894 -81.30515 4523 ft 257 kts 306°
2026-05-05 09:00 19.35713 -81.32200 5092 ft 258 kts 291°
2026-05-05 09:00 19.36361 -81.33983 5692 ft 262 kts 289°
2026-05-05 09:00 19.37000 -81.35826 6033 ft 278 kts 289°
2026-05-05 09:00 19.37672 -81.37792 6632 ft 286 kts 289°
2026-05-05 09:01 19.38342 -81.39773 7484 ft 285 kts 289°
2026-05-05 09:01 19.39003 -81.41755 8308 ft 287 kts 289°
2026-05-05 09:01 19.39668 -81.43768 9079 ft 290 kts 289°
2026-05-05 09:01 19.40333 -81.45799 9860 ft 293 kts 289°
2026-05-05 09:02 19.41000 -81.47858 10448 ft 303 kts 289°
2026-05-05 09:02 19.41712 -81.50055 10628 ft 326 kts 289°
2026-05-05 09:02 19.42474 -81.52398 10777 ft 348 kts 289°
2026-05-05 09:02 19.43288 -81.54889 10938 ft 367 kts 289°
2026-05-05 09:03 19.44146 -81.57504 11066 ft 384 kts 289°
2026-05-05 09:03 19.45043 -81.60230 11284 ft 397 kts 289°
2026-05-05 09:03 19.45959 -81.63005 11748 ft 401 kts 289°
2026-05-05 09:03 19.46883 -81.65791 12331 ft 401 kts 289°
2026-05-05 09:04 19.47831 -81.68575 12871 ft 402 kts 292°
2026-05-05 09:04 19.49188 -81.71171 13365 ft 405 kts 303°
2026-05-05 09:04 19.50824 -81.73616 13832 ft 408 kts 306°
2026-05-05 09:04 19.52483 -81.76019 14244 ft 410 kts 305°
2026-05-05 09:05 19.54152 -81.78524 14663 ft 412 kts 304°
2026-05-05 09:05 19.55729 -81.81014 15081 ft 414 kts 302°
2026-05-05 09:05 19.57295 -81.83599 15484 ft 416 kts 302°
2026-05-05 09:05 19.58827 -81.86217 15879 ft 418 kts 301°
2026-05-05 09:06 19.60339 -81.88854 16256 ft 420 kts 301°
2026-05-05 09:06 19.61846 -81.91514 16657 ft 422 kts 300°
2026-05-05 09:06 19.63355 -81.94195 17100 ft 422 kts 300°
2026-05-05 09:06 19.64859 -81.96873 17484 ft 423 kts 300°
2026-05-05 09:07 19.66371 -81.99566 17825 ft 426 kts 300°
2026-05-05 09:07 19.67890 -82.02273 18161 ft 428 kts 300°
2026-05-05 09:07 19.69415 -82.04990 18465 ft 430 kts 300°
2026-05-05 09:07 19.70947 -82.07718 18772 ft 431 kts 300°
2026-05-05 09:08 19.72480 -82.10450 19069 ft 432 kts 300°
2026-05-05 09:08 19.74023 -82.13199 19357 ft 433 kts 300°
2026-05-05 09:08 19.75566 -82.15951 19633 ft 435 kts 300°
2026-05-05 09:08 19.77118 -82.18718 19907 ft 437 kts 300°
2026-05-05 09:09 19.78654 -82.21459 20171 ft 438 kts 300°
2026-05-05 09:09 19.80216 -82.24246 20449 ft 439 kts 300°
2026-05-05 09:09 19.81779 -82.27039 20711 ft 441 kts 300°
2026-05-05 09:09 19.83348 -82.29843 20970 ft 442 kts 300°
2026-05-05 09:10 19.84921 -82.32654 21220 ft 443 kts 300°
2026-05-05 09:10 19.86499 -82.35476 21470 ft 445 kts 300°
2026-05-05 09:10 19.88081 -82.38307 21699 ft 446 kts 300°
2026-05-05 09:10 19.89664 -82.41142 21916 ft 447 kts 300°
2026-05-05 09:11 19.91255 -82.43990 22194 ft 448 kts 300°
2026-05-05 09:11 19.92846 -82.46843 22445 ft 448 kts 300°
2026-05-05 09:11 19.94443 -82.49705 22655 ft 450 kts 300°
2026-05-05 09:11 19.96039 -82.52567 22842 ft 451 kts 300°
2026-05-05 09:12 19.97641 -82.55443 23048 ft 452 kts 300°
2026-05-05 09:12 19.99247 -82.58326 23284 ft 453 kts 300°
2026-05-05 09:12 20.00851 -82.61207 23534 ft 452 kts 300°
2026-05-05 09:12 20.02434 -82.64053 23701 ft 453 kts 300°
2026-05-05 09:13 20.04041 -82.66943 23846 ft 455 kts 300°
2026-05-05 09:13 20.05649 -82.69837 23996 ft 456 kts 300°
2026-05-05 09:13 20.07266 -82.72748 24157 ft 456 kts 300°
2026-05-05 09:13 20.08881 -82.75655 24318 ft 457 kts 300°
2026-05-05 09:14 20.09975 -82.77626 24424 ft 458 kts 300°
2026-05-05 09:14 20.12117 -82.81488 24647 ft 458 kts 300°
2026-05-05 09:14 20.13187 -82.83417 24759 ft 458 kts 300°
2026-05-05 09:14 20.14811 -82.86347 24903 ft 459 kts 300°
2026-05-05 09:15 20.16431 -82.89272 25033 ft 460 kts 300°
2026-05-05 09:15 20.18057 -82.92209 25165 ft 461 kts 300°
2026-05-05 09:15 20.19685 -82.95150 25305 ft 461 kts 300°
2026-05-05 09:15 20.21316 -82.98098 25444 ft 462 kts 300°
2026-05-05 09:16 20.22945 -83.01045 25569 ft 463 kts 300°
2026-05-05 09:16 20.24577 -83.04000 25698 ft 463 kts 300°
2026-05-05 09:16 20.26216 -83.06966 25818 ft 464 kts 300°
2026-05-05 09:16 20.27851 -83.09928 25935 ft 464 kts 300°
2026-05-05 09:17 20.29489 -83.12896 26090 ft 464 kts 300°
2026-05-05 09:17 20.31117 -83.15849 26270 ft 463 kts 299°
2026-05-05 09:17 20.32744 -83.18801 26475 ft 461 kts 300°
2026-05-05 09:17 20.34366 -83.21745 26713 ft 459 kts 300°
2026-05-05 09:18 20.35975 -83.24668 26987 ft 456 kts 300°
2026-05-05 09:18 20.37578 -83.27580 27239 ft 454 kts 300°
2026-05-05 09:18 20.39177 -83.30487 27448 ft 454 kts 300°
2026-05-05 09:18 20.40775 -83.33394 27610 ft 455 kts 300°
2026-05-05 09:19 20.42352 -83.36265 27810 ft 454 kts 300°
2026-05-05 09:19 20.43950 -83.39173 28035 ft 453 kts 300°
2026-05-05 09:19 20.45545 -83.42079 28268 ft 452 kts 300°
2026-05-05 09:19 20.47133 -83.44975 28494 ft 452 kts 300°
2026-05-05 09:20 20.48720 -83.47868 28726 ft 451 kts 300°
2026-05-05 09:20 20.50301 -83.50753 28967 ft 450 kts 299°
2026-05-05 09:20 20.51878 -83.53632 29208 ft 450 kts 300°
2026-05-05 09:20 20.53450 -83.56505 29503 ft 448 kts 300°
2026-05-05 09:21 20.55021 -83.59374 29824 ft 446 kts 300°
2026-05-05 09:21 20.56580 -83.62224 30078 ft 445 kts 300°
2026-05-05 09:21 20.58141 -83.65080 30270 ft 445 kts 300°
2026-05-05 09:21 20.59702 -83.67936 30480 ft 445 kts 300°
2026-05-05 09:22 20.61257 -83.70785 30719 ft 444 kts 300°
2026-05-05 09:22 20.62811 -83.73631 30959 ft 443 kts 300°
2026-05-05 09:22 20.64339 -83.76432 31171 ft 443 kts 300°
2026-05-05 09:22 20.65892 -83.79280 31402 ft 442 kts 299°
2026-05-05 09:23 20.67437 -83.82115 31638 ft 442 kts 299°
2026-05-05 09:23 20.68982 -83.84950 31879 ft 441 kts 299°
2026-05-05 09:23 20.70520 -83.87776 32150 ft 440 kts 299°
2026-05-05 09:23 20.72052 -83.90591 32493 ft 437 kts 299°
2026-05-05 09:24 20.73577 -83.93394 32754 ft 436 kts 300°
2026-05-05 09:24 20.75106 -83.96206 32934 ft 438 kts 299°
2026-05-05 09:24 20.76635 -83.99021 33146 ft 437 kts 299°
2026-05-05 09:24 20.78161 -84.01830 33437 ft 436 kts 299°
2026-05-05 09:25 20.79681 -84.04629 33729 ft 435 kts 299°
2026-05-05 09:25 20.81196 -84.07422 33967 ft 434 kts 298°
2026-05-05 09:25 20.82715 -84.10224 33955 ft 437 kts 298°
2026-05-05 09:26 20.85740 -84.15806 33961 ft 435 kts 298°
2026-05-05 09:26 20.88765 -84.21393 33970 ft 433 kts 298°
2026-05-05 09:27 20.91778 -84.26963 33970 ft 432 kts 298°
2026-05-05 09:27 20.94781 -84.32524 33962 ft 431 kts 299°
2026-05-05 09:28 20.97782 -84.38084 33960 ft 432 kts 299°
2026-05-05 09:28 21.00787 -84.43658 33960 ft 433 kts 299°
2026-05-05 09:29 21.03802 -84.49254 33960 ft 434 kts 299°
2026-05-05 09:29 21.06812 -84.54848 33971 ft 434 kts 300°
2026-05-05 09:30 21.09825 -84.60452 33958 ft 433 kts 300°
2026-05-05 09:30 21.12831 -84.66050 33961 ft 433 kts 300°
2026-05-05 09:31 21.15807 -84.71597 33961 ft 432 kts 300°
2026-05-05 09:31 21.18799 -84.77180 33962 ft 432 kts 300°
2026-05-05 09:32 21.21784 -84.82756 33958 ft 431 kts 300°
2026-05-05 09:32 21.24768 -84.88334 33958 ft 431 kts 300°
2026-05-05 09:33 21.27749 -84.93915 33962 ft 431 kts 300°
2026-05-05 09:33 21.30729 -84.99498 33962 ft 431 kts 300°
2026-05-05 09:34 21.33710 -85.05089 33952 ft 431 kts 300°
2026-05-05 09:34 21.36666 -85.10637 33958 ft 431 kts 300°
2026-05-05 09:35 21.39640 -85.16227 33964 ft 431 kts 300°
2026-05-05 09:35 21.44100 -85.24619 33958 ft 432 kts 300°
2026-05-05 09:36 21.47076 -85.30227 33957 ft 432 kts 300°
2026-05-05 09:36 21.50050 -85.35836 33959 ft 432 kts 300°
2026-05-05 09:37 21.53021 -85.41446 33959 ft 432 kts 300°
2026-05-05 09:37 21.55994 -85.47066 33967 ft 432 kts 300°
2026-05-05 09:38 21.58961 -85.52677 33970 ft 432 kts 300°
2026-05-05 09:38 21.61924 -85.58291 33972 ft 432 kts 300°
2026-05-05 09:39 21.64873 -85.63882 33965 ft 432 kts 300°
2026-05-05 09:39 21.67833 -85.69500 33966 ft 432 kts 300°
2026-05-05 09:40 21.70791 -85.75120 33963 ft 432 kts 300°
2026-05-05 09:40 21.73770 -85.80787 33963 ft 432 kts 300°
2026-05-05 09:41 21.76703 -85.86371 33963 ft 431 kts 300°
2026-05-05 09:41 21.79638 -85.91966 33957 ft 429 kts 300°
2026-05-05 09:42 21.82569 -85.97559 33961 ft 428 kts 300°
2026-05-05 09:42 21.85574 -86.03079 33949 ft 427 kts 307°
2026-05-05 09:43 21.89911 -86.07423 33963 ft 428 kts 324°
2026-05-05 09:43 21.95293 -86.10221 33968 ft 432 kts 335°
2026-05-05 09:44 22.00895 -86.12597 33966 ft 433 kts 335°
2026-05-05 09:44 22.06488 -86.14991 33968 ft 433 kts 335°
2026-05-05 09:45 22.12073 -86.17418 33979 ft 432 kts 334°
2026-05-05 09:45 22.17613 -86.19843 33956 ft 432 kts 334°
2026-05-05 09:46 22.23176 -86.22281 33964 ft 431 kts 334°
2026-05-05 09:46 22.28739 -86.24722 33967 ft 431 kts 334°
2026-05-05 09:47 22.34296 -86.27161 33967 ft 431 kts 334°
2026-05-05 09:47 22.39850 -86.29601 33967 ft 431 kts 334°
2026-05-05 09:48 22.45405 -86.32043 33973 ft 430 kts 334°
2026-05-05 09:48 22.50948 -86.34482 33961 ft 429 kts 334°
2026-05-05 09:49 22.56475 -86.36916 33964 ft 428 kts 334°
2026-05-05 09:49 22.61988 -86.39347 33966 ft 428 kts 334°
2026-05-05 09:50 22.67464 -86.41763 33967 ft 427 kts 334°
2026-05-05 09:50 22.72997 -86.44128 33962 ft 430 kts 340°
2026-05-05 09:51 22.78980 -86.44945 33969 ft 439 kts 355°
2026-05-05 09:51 22.85081 -86.43969 33980 ft 447 kts
2026-05-05 09:52 22.91153 -86.42473 33973 ft 447 kts
2026-05-05 09:52 22.97220 -86.40998 33973 ft 446 kts
2026-05-05 09:53 23.03287 -86.39567 33972 ft 445 kts
2026-05-05 09:53 23.09305 -86.38161 33986 ft 445 kts
2026-05-05 09:54 23.15363 -86.36743 33976 ft 445 kts
2026-05-05 09:54 23.21427 -86.35320 33975 ft 445 kts
2026-05-05 09:55 23.27487 -86.33897 33978 ft 445 kts
2026-05-05 09:55 23.33538 -86.32476 33982 ft 445 kts
2026-05-05 09:56 23.39555 -86.31062 34003 ft 445 kts
2026-05-05 09:56 23.45612 -86.29637 33983 ft 445 kts
2026-05-05 09:57 23.48631 -86.28926 33979 ft 445 kts